Location: Rooftop Observatory
(39.0308°N, 87.1711°W)
Time: 08:24:03
(UTC-05:00)

Daily predictions for brighter satellites

Satellite Brightness Start Highest point End
(mag) Time Altitude Azimuth Time Altitude Azimuth Time Altitude Azimuth
Cosmos 2219 3.3 20:42:00 10° S 20:47:39 63° ESE 20:53:20 10° NNE
S3M 4.4 20:42:54 10° NNW 20:48:58 69° W 20:55:04 10° S
FENGYUN 3A 4.2 20:44:14 10° S 20:49:35 64° WSW 20:54:59 10° NNW
Cosmos 2237 Rocket 4.1 20:47:44 10° NNE 20:51:14 16° NE 20:54:42 10° E
OAO 2 Rocket 3.8 20:47:08 10° WSW 20:52:09 44° SSE 20:57:12 10° E
Cosmos 2322 Rocket 4.0 20:48:50 10° NW 20:53:35 29° WSW 20:58:20 10° SSW
Cosmos 1515 Rocket 4.3 20:53:28 10° NNW 20:57:48 55° W 21:02:04 10° S
ATLAS 2AS CENTAUR R/B 3.9 20:52:32 10° SSE 20:58:05 24° ESE 21:03:58 10° ENE
Cosmos 2322 3.9 20:52:55 10° NNW 20:58:39 81° WSW 21:04:20 10° SSE
Sich 1 4.3 20:55:25 10° SE 20:58:56 24° E 21:02:27 10° NE
deb Chang Zheng 4 3.6 20:55:24 10° NNE 20:59:42 60° ESE 21:03:59 10° S
Cosmos 2360 Rocket 2.4 20:55:05 10° NNW 21:00:45 75° WSW 21:06:23 10° SSE
Cosmos 1151 Rocket 3.0 20:57:29 10° N 21:01:50 89° WSW 21:06:10 10° S
Cosmos 1328 3.8 20:58:56 10° S 21:02:49 62° E 21:06:44 10° NNE
ERS-1 Rocket 3.0 21:01:25 10° SSE 21:06:27 86° WSW 21:11:32 10° NNW
Cosmos 1633 Rocket 4.1 21:03:02 10° SSE 21:06:43 27° E 21:10:23 10° NNE
ERBS 3.0 21:04:02 10° SSW 21:07:13 33° SE 21:10:24 10° ENE
SL-16 R/B 4.3 21:02:51 10° NW 21:07:17 24° W 21:11:42 10° SSW
YAOGAN 6 4.2 21:04:58 11° ESE 21:07:34 20° ENE 21:10:16 10° NNE
Envisat 3.1 21:08:51 10° SSE 21:13:52 67° ENE 21:18:55 10° N
Cosmos 1674 3.8 21:10:58 10° SSW 21:14:40 47° W 21:18:26 10° N
SL-14 R/B 3.7 21:14:44 10° SSE 21:18:29 42° E 21:22:17 10° NNE
Cosmos 304 Rocket 4.5 21:14:32 10° NNW 21:19:13 52° WSW 21:23:51 10° S
NOSS 3-1 (C) 3.5 21:14:36 10° SW 21:20:26 83° WNW 21:26:55 10° NNE
USA 245 4.3 21:21:00 12° E 21:21:31 13° ENE 21:22:40 10° NE
Meteor 1-27 4.3 21:18:13 10° N 21:23:49 61° ENE 21:28:50 13° SSE
Cosmos 1805 Rocket 3.5 21:19:53 10° S 21:24:19 76° E 21:28:46 10° N
PSLV R/B 3.5 21:23:16 17° SE 21:25:23 49° ENE 21:28:20 10° N
Cosmos 220 Rocket 4.4 21:23:48 10° S 21:27:58 45° ESE 21:32:12 10° NNE
Cosmos 2227 Rocket 2.8 21:24:06 10° SSE 21:29:09 35° ESE 21:34:14 10° NE
Cosmos 1937 Rocket 3.6 21:26:29 10° S 21:31:33 53° ESE 21:36:36 10° NNE
Cosmos 1300 2.6 21:28:55 10° N 21:32:45 75° E 21:35:46 16° SSE
MetOp-A 4.2 21:30:22 14° SSE 21:34:56 67° ENE 21:40:15 10° N
Cosmos 990 Rocket 4.4 21:32:41 10° S 21:37:28 41° ESE 21:42:17 10° NNE
H-2A R/B 3.0 21:36:56 10° S 21:41:19 49° W 21:45:42 10° NNW
Cosmos 292 Rocket 3.8 21:38:15 10° NNW 21:43:00 63° ENE 21:46:01 22° SE
Meteor 2-11 Rocket 4.4 21:37:29 10° N 21:43:40 81° E 21:48:55 15° S
SPOT 5 2.9 21:40:03 14° S 21:44:01 81° WSW 21:48:55 10° NNW
Cosmos 1707 Rocket 3.6 21:40:20 10° N 21:44:43 81° W 21:48:17 15° S
SL-16 R/B 3.9 21:43:02 10° N 21:47:10 20° NE 21:50:40 12° E
Cosmos 1666 Rocket 3.6 21:43:00 10° S 21:47:23 82° W 21:51:52 10° N
H-2A R/B 4.2 21:43:42 10° SSW 21:47:45 32° SSE 22:03:48 10° E
Cosmos 2298 Rocket 4.5 21:42:48 10° SSW 21:48:04 65° WNW 21:53:22 10° NNE
ARGOS 3.5 21:44:45 20° SE 21:48:15 51° ENE 21:53:28 10° N
Meteor 1-11 4.4 21:43:58 10° SSW 21:49:43 77° W 21:55:27 10° N
CZ-4B R/B 3.5 21:44:33 10° NNE 21:49:48 66° ESE 21:54:30 12° S
Cosmos 2333 Rocket 2.6 21:46:38 10° NNW 21:52:17 53° ENE 21:55:43 23° SE
OTV 4 0.4 21:51:13 10° WSW 21:54:08 54° SSE 21:54:46 42° ESE
Cosmos 1455 3.3 21:51:29 10° NNE 21:54:50 28° ENE 21:55:49 25° ESE
Cosmos 1241 Rocket 4.4 21:49:14 10° SSW 21:55:21 70° ESE 22:01:35 10° NE
Cosmos 2297 Rocket 2.6 21:51:53 18° SSE 21:55:34 40° ESE 22:00:49 10° NE
Hubble Space Telescope 2.5 21:52:53 10° SW 21:54:58 17° S 21:54:58 17° S
Cosmos 1726 2.4 21:53:04 10° NNW 21:56:51 68° W 21:59:13 21° S
Cosmos 1346 3.6 21:57:45 37° ESE 21:57:55 38° E 22:00:46 10° NNE
DELTA 2 R/B(2) 3.5 21:57:25 10° W 21:59:08 70° N 21:59:30 52° ENE
Cosmos 2219 Rocket 2.1 21:54:09 10° NNW 21:59:47 80° ENE 22:03:07 25° SSE
Cosmos 1470 Rocket 3.7 21:59:12 27° SSE 22:01:15 53° E 22:05:27 10° NNE
Cosmos 1933 Rocket 3.8 22:00:00 27° SSE 22:02:09 53° E 22:06:30 10° NNE
COSMOS 2428 3.5 21:58:41 10° NW 22:04:04 46° WSW 22:08:25 15° S
Meteor 2-10 4.2 21:58:22 10° N 22:04:07 72° E 22:07:30 25° SSE
Meteor 1-4 Rocket 2.6 22:01:35 10° NNW 22:05:19 76° W 22:06:57 31° S
NOSS 0 Rocket 3.9 21:59:48 10° NNW 22:05:59 80° ENE 22:09:36 27° SSE
Lacrosse 4 Rocket 3.2 22:03:30 10° N 22:07:02 23° NE 22:08:55 17° E
SL-08 RB Rocket 3.8 22:05:02 31° SE 22:07:03 62° ENE 22:11:30 10° N
Nadezhda 1 Rocket 4.1 22:02:52 10° N 22:08:56 61° E 22:12:17 27° SSE
Terra 2.6 22:14:21 29° ESE 22:15:59 38° ENE 22:20:22 10° N
H-2A R/B 2.6 22:15:25 30° SE 22:17:44 48° ENE 22:22:58 10° N
COSMOS 2455 3.6 22:13:09 10° NNW 22:18:51 41° NE 22:21:50 25° ESE
Cosmos 1745 Rocket 4.0 22:16:53 16° S 22:22:00 84° W 22:28:12 10° N
Delta 2 Rocket 4.3 22:19:33 10° WSW 22:22:05 26° SW 22:22:05 26° SW
Tiangong 1 2.4 22:20:56 10° WNW 22:23:52 39° N 22:25:23 22° NE
Cosmos 1980 3.6 22:18:35 10° NNW 22:24:16 89° WSW 22:26:49 34° SSE
Cosmos 1125 Rocket 3.8 22:23:43 35° SSE 22:25:27 49° ESE 22:30:34 10° NNE
Cosmos 1709 Rocket 4.2 22:27:42 33° SE 22:29:59 49° E 22:35:49 10° NNE
SPOT 1/Viking Rocket 4.1 22:27:31 24° SSW 22:30:27 54° W 22:35:31 10° NNW
Cosmos 2237 Rocket 2.2 22:30:15 10° NNW 22:35:58 79° WSW 22:38:17 37° S
OAO 2 Rocket 3.5 22:31:30 10° W 22:36:43 56° S 22:38:01 44° SE
Cosmos 1626 2.3 22:36:48 46° SSW 22:37:46 68° W 22:41:31 10° N
Cosmos 1869 3.2 22:34:32 10° N 22:38:36 84° E 22:39:14 62° SSE
Cosmos 1271 Rocket 4.3 22:35:42 10° NNW 22:39:07 30° W 22:40:46 22° SW
Cosmos 1386 Rocket 4.4 22:36:10 25° S 22:39:48 83° W 22:45:51 10° N
Cosmos 2082 4.2 22:35:29 10° SW 22:41:08 60° WNW 22:46:48 10° NNE
CARTOSAT-1 3.5 22:42:07 57° SE 22:42:55 76° ENE 22:47:14 10° N
Cosmos 1862 Rocket 3.6 22:39:41 10° NNW 22:43:59 69° W 22:45:04 48° SSW
ATLAS 2AS CENTAUR R/B 3.2 22:40:49 10° SW 22:48:16 73° NW 22:56:21 10° NNE
IGS 5A 3.3 22:50:56 69° SE 22:51:22 81° ENE 22:55:33 10° N
CZ-4C R/B 3.6 22:52:05 47° WSW 22:52:13 47° W 22:55:36 10° NNW
SAR-Lupe-2 3.6 22:58:30 75° N 22:58:30 75° N 23:01:49 10° NNW
ATLAS 3B R/B 2.6 22:51:16 10° NNW 22:58:16 78° NE 23:00:41 42° SE
BREEZE-M DEB (TANK) 2.9 23:02:24 68° E 23:02:24 68° E 23:08:43 10° ENE
Cosmos 2181 Rocket 4.0 22:59:10 10° N 23:05:36 77° E 23:07:35 47° SSE
Meteor 2-3 Rocket 4.2 23:08:52 42° ESE 23:09:24 43° E 23:14:45 10° NNE
Cosmos 1869 Rocket 3.4 23:10:53 77° ESE 23:10:57 77° E 23:15:25 10° N
Cosmos 2184 Rocket 4.4 23:10:25 41° ESE 23:11:21 43° E 23:17:08 10° NNE
Cosmos 2227 Rocket 3.8 23:08:10 10° WSW 23:13:11 32° WNW 23:18:14 10° N
COS B Rocket 3.7 23:09:23 10° N 23:13:01 59° ENE 23:13:01 59° ENE
USA 238 DEB 4.2 23:08:44 10° NNW 23:15:36 52° NE 23:18:30 33° ESE
CZ-4C R/B 4.1 23:09:25 10° NNW 23:15:36 32° NE 23:20:27 17° E
USA 238 4.2 23:08:51 10° NNW 23:15:41 51° NE 23:18:37 33° ESE
Aureole 2 Rocket 4.1 23:13:34 10° N 23:15:36 27° NE 23:15:36 27° NE
FALCON 9 R/B 3.3 22:56:01 10° W 23:18:08 65° SSW 23:20:47 42° SE
NOSS 2-3 (E) 4.1 23:21:05 40° SW 23:22:49 72° NW 23:28:24 10° NNE
Okean 1-7 3.1 23:21:46 10° N 23:25:39 70° NNE 23:25:39 70° NNE
SL-16 R/B 2.3 23:26:06 10° NNW 23:31:43 61° WSW 23:32:32 55° SSW
ALOS 2 4.1 23:34:30 26° ENE 23:34:30 26° ENE 23:38:00 10° NNE
Cosmos 2084 Rocket 4.2 23:36:33 43° NNE 23:36:33 43° NNE 23:39:13 10° NNE
SL-08 ROCKET BODY 4.5 23:35:15 56° SE 23:36:03 61° E 23:42:06 10° NNE
Cosmos 2333 Rocket 4.0 23:31:58 10° NW 23:36:05 21° W 23:37:44 18° WSW
Cosmos 2227 4.0 23:35:53 70° SE 23:36:17 74° ESE 23:41:58 10° NNE
Cosmos 2297 Rocket 4.0 23:34:54 10° WSW 23:39:42 28° WNW 23:44:32 10° N
SeaSat 1 3.2 23:40:22 39° ENE 23:41:00 41° ENE 23:45:38 10° N
Cosmos 2219 Rocket 4.5 23:40:49 10° WNW 23:42:55 12° W 23:44:50 10° WSW
ASTEX 1 4.2 23:39:36 10° NNE 23:43:37 38° ENE 23:43:37 38° ENE
Cosmos 44 Rocket 4.2 23:43:24 30° WSW 23:45:38 49° NW 23:50:44 10° NNE
Uosat 12 SS-18 rocket 4.3 23:45:39 77° W 23:45:48 78° WNW 23:50:20 10° NNE
Lacrosse 4 Rocket 2.7 23:41:45 10° NW 23:45:16 35° W 23:45:16 35° W
Cosmos 2251 Rocket 3.5 23:40:40 10° NNW 23:45:58 67° ENE 23:46:13 66° E
Cosmos 921 Rocket 4.5 23:48:52 27° NE 23:48:52 27° NE 23:51:11 10° NNE
Cosmos 494 Rocket 4.4 23:45:07 10° N 23:50:15 50° ENE 23:50:33 49° E
Cosmos 1943 4.4 23:46:47 10° N 23:51:50 32° ENE 23:53:12 28° E
Terra 3.6 23:53:15 20° WSW 23:53:49 21° W 23:57:23 10° NW
Cosmos 1782 4.4 23:51:36 10° NNE 23:54:10 29° NE 23:54:10 29° NE
